Weather Roundup
Issued by NWS Springfield, MO

Home | Current Version | Previous Version | Text Only | Print | Product List | Glossary On
Versions: 1 2 3 4 5 6 7 8 9 10 11 12 13 14 15 16 17 18 19 20 21 22 23 24 25 26 27 28 29 30 31 32 33 34 35 36 37 38 39 40 41 42 43 44 45 46 47 48 49 50
000
NZUS99 KSGF 031410
HRRSGF

HOURLY WEATHER
NATIONAL WEATHER SERVICE SPRINGFIELD MO
900 AM CDT THU SEP 03 2015

......SGF CWA......

CITY           SKY/WX    TMP DP  RH WIND       PRES   REMARKS
SPRINGFIELD    SUNNY     75  68  78 S8        30.04R
JOPLIN         SUNNY     77  68  73 S9        30.03R
WEST PLAINS    SUNNY     76  68  76 S3        30.08R
ROLLA          MOSUNNY   77  68  73 S9        30.03S
OSAGE BEACH    SUNNY     75  66  73 CALM      30.03S
BRANSON        MOSUNNY   77  66  69 CALM      30.07R

......SURROUNDING SGF CWA......

CITY           SKY/WX    TMP DP  RH WIND       PRES   REMARKS
CHANUTE        SUNNY     76  69  79 S12       29.99S
PARSONS        SUNNY     75  69  81 S7        30.01R
COFFEYVILLE    SUNNY     75  69  81 S9        30.00R
EMPORIA        MOSUNNY   76  66  71 S12       29.96R
GROVE OK       SUNNY     79  70  73 CALM      30.03S
ROGERS AR      SUNNY     76  68  76 S6        30.06R
SILOAM SPRINGS SUNNY     75  64  69 S3        30.03S
HARRISON AR    SUNNY     73  68  84 SE7       30.07R
NEAR YELLVILLE SUNNY     73  64  73 CALM      30.04R

......KANSAS AND MISSOURI......

CITY           SKY/WX    TMP DP  RH WIND       PRES   REMARKS
KANSAS CTY INT PTSUNNY   79  68  69 S13       29.96R
DOWNTOWN KC    SUNNY     81  68  64 S6        29.95S
COLUMBIA       PTSUNNY   74  69  85 S6        30.01S
SEDALIA        SUNNY     78  68  71 S10       30.02R
ST JOSEPH      LGT RAIN  75  69  81 S8        29.94S
ST LOUIS       MOSUNNY   83  69  62 SW3       30.03S
SPIRIT OF STL  MOSUNNY   77  71  82 CALM      30.01S
KIRKSVILLE     MOSUNNY   78  69  73 SW6       30.00R
WICHITA        PTSUNNY   77  64  64 S14       29.95S
TOPEKA         MOSUNNY   78  67  68 S7        29.95R
OLATHE         SUNNY     76  67  73 S9        29.97S

......TENNESSEE......

CITY           SKY/WX    TMP DP  RH WIND       PRES   REMARKS
MEMPHIS        MOSUNNY   81  72  74 CALM      30.04S
NASHVILLE      MOSUNNY   82  71  69 CALM      30.05S

......ARKANSAS.......

CITY           SKY/WX    TMP DP  RH WIND       PRES   REMARKS
FAYETTEVILLE   SUNNY     73  70  90 S3        30.05S
FT SMITH       SUNNY     76  68  76 E7        30.01S
LITTLE ROCK    SUNNY     79  71  76 CALM      30.03S

......OKLAHOMA.......

CITY           SKY/WX    TMP DP  RH WIND       PRES   REMARKS
TULSA          PTSUNNY   78  69  73 S9        29.98S
PONCA CITY     SUNNY     78  66  66 S7        29.97R
MCALESTER      MOSUNNY   78  69  73 VRB5      30.01S
OKLAHOMA CITY  MOSUNNY   75  66  73 S10       29.99S

......IOWA............

CITY           SKY/WX    TMP DP  RH WIND       PRES   REMARKS
DES MOINES     PTSUNNY   77  69  76 S9        29.92R
QUAD CITIES    MOSUNNY   79  69  71 S7        29.95F

......ILLINOIS........

CITY           SKY/WX    TMP DP  RH WIND       PRES   REMARKS
QUINCY         SUNNY     78  69  73 S9        30.00S
CHICAGO        MOSUNNY   78  69  73 SW10      29.95F




USA.gov is the U.S. government's official web portal to all federal, state and local government web resources and services.